Terug naar catalogus

STARLINK-32120

ActiefCommunicatieVLEO
NORAD 60265·PAYLOAD·🇺🇸 United States

Gelanceerd Jul 27, 2024 vanaf Cape Canaveral Space Force Station

Loading…

Volgende Passages (komende 24 uur)

TLE

VersSource: CelesTrak SupGP

Epoch: Sep 15, 2026, 02:17 UTC

1 60265C 24131L   26258.09562500 -.00017838  00000+0 -52698-3 0  2589
2 60265  53.1582 252.6355 0001300  87.6209  62.9994 15.34401861    12

Volg STARLINK-32120 in realtime met AllMySat

Download on the App Store